Tracking 29487 objects as of 10-Sep-2024
HD Live streaming from Space Station
objects crossing your sky now

SL-3 DEB

Track SL-3 DEB now!
10-day predictions


NORAD ID: 14928
Int'l Code: 1983-075F
Perigee: 481.8 km
Apogee: 517.5 km
Inclination: 97.8 °
Period: 94.5 minutes
Semi major axis: 6870 km
RCS: 0.0341 m2 (small)
Launch date: July 24, 1983
Source: Commonwealth of Independent States (former USSR) (CIS)
Launch site: TYURATAM MISSILE AND SPACE COMPLEX (TTMTR)

Note: This is SATELLITE DEBRIS
Your satellite tracking list
Your tracking list is empty




NASA's NSSDC Master Catalog

Two Line Element Set (TLE):
1 14928U 83075F   24253.70968743  .00017463  00000-0  70715-3 0  9991
2 14928  97.7622 170.5449 0025952 161.5073 198.7113 15.24434037219875
Source of the keplerian elements: AFSPC